Time,TemperatureF,DewpointF,PressureIn,WindDirection,WindDirectionDegrees,WindSpeedMPH,WindSpeedGustMPH,Humidity,HourlyPrecipIn,Conditions,Clouds,dailyrainin,SoftwareType,DateUTC
2013-03-17 00:05:00,33.4,25.6,29.96,WNW,292,0.0,2.7,73,0.00,,,0.00,WUHU21623XXSP,2013-03-17 07:05:00,
2013-03-17 00:10:00,33.3,25.5,29.95,WSW,247,0.0,0.0,73,0.00,,,0.00,WUHU21623XXSP,2013-03-17 07:10:00,
2013-03-17 00:15:00,33.1,25.3,29.96,NW,315,0.0,0.0,73,0.00,,,0.00,WUHU21623XXSP,2013-03-17 07:15:00,
2013-03-17 00:20:00,32.9,25.1,29.96,NNE,22,0.0,2.2,73,0.00,,,0.00,WUHU21623XXSP,2013-03-17 07:20:00,
2013-03-17 00:26:00,32.7,25.0,29.96,North,0,2.9,2.9,73,0.00,,,0.00,WUHU21623XXSP,2013-03-17 07:26:00,
2013-03-17 00:32:00,32.5,25.1,29.95,WSW,247,1.1,2.9,74,0.00,,,0.00,WUHU21623XXSP,2013-03-17 07:32:00,
2013-03-17 00:37:00,32.4,25.3,29.96,NNW,337,5.1,5.1,75,0.00,,,0.00,WUHU21623XXSP,2013-03-17 07:37:00,
2013-03-17 00:42:00,32.2,25.1,29.95,WSW,247,3.4,5.1,75,0.00,,,0.00,WUHU21623XXSP,2013-03-17 07:42:00,
2013-03-17 00:48:00,32.2,25.5,29.96,NW,315,3.1,3.4,76,0.00,,,0.00,WUHU21623XXSP,2013-03-17 07:48:00,
2013-03-17 00:53:00,31.8,25.1,29.96,NE,45,3.6,3.6,76,0.00,,,0.00,WUHU21623XXSP,2013-03-17 07:53:00,
2013-03-17 00:58:00,31.8,25.1,29.96,NNW,337,0.0,6.3,76,0.00,,,0.00,WUHU21623XXSP,2013-03-17 07:58:00,
2013-03-17 01:03:00,31.8,25.1,29.96,NNW,337,1.3,1.3,76,0.00,,,0.00,WUHU21623XXSP,2013-03-17 08:03:00,
2013-03-17 01:08:00,31.8,25.1,29.96,NNW,337,3.1,3.1,76,0.00,,,0.00,WUHU21623XXSP,2013-03-17 08:08:00,
2013-03-17 01:14:00,31.6,24.9,29.95,WNW,292,0.0,3.1,76,0.00,,,0.00,WUHU21623XXSP,2013-03-17 08:14:00,
2013-03-17 01:19:00,31.6,24.6,29.95,WNW,292,0.0,2.9,75,0.00,,,0.00,WUHU21623XXSP,2013-03-17 08:19:00,
2013-03-17 01:24:00,31.5,24.4,29.96,NE,45,1.3,4.7,75,0.00,,,0.00,WUHU21623XXSP,2013-03-17 08:24:00,
2013-03-17 01:29:00,31.3,23.9,29.95,WSW,247,0.0,4.7,74,0.00,,,0.00,WUHU21623XXSP,2013-03-17 08:29:00,
2013-03-17 01:35:00,31.3,23.9,29.95,North,0,8.1,8.1,74,0.00,,,0.00,WUHU21623XXSP,2013-03-17 08:35:00,
2013-03-17 01:40:00,31.3,23.6,29.95,NNE,22,2.5,8.1,73,0.00,,,0.00,WUHU21623XXSP,2013-03-17 08:40:00,
2013-03-17 01:45:00,31.3,23.6,29.96,NE,45,0.0,5.4,73,0.00,,,0.00,WUHU21623XXSP,2013-03-17 08:45:00,
2013-03-17 01:50:00,31.1,23.4,29.95,North,0,0.0,5.4,73,0.00,,,0.00,WUHU21623XXSP,2013-03-17 08:50:00,
2013-03-17 01:56:00,30.9,23.3,29.96,WNW,292,0.0,0.0,73,0.00,,,0.00,WUHU21623XXSP,2013-03-17 08:56:00,
2013-03-17 02:01:00,30.9,22.9,29.96,North,0,0.0,0.0,72,0.00,,,0.00,WUHU21623XXSP,2013-03-17 09:01:00,
2013-03-17 02:06:00,30.7,22.7,29.96,West,270,2.5,4.9,72,0.00,,,0.00,WUHU21623XXSP,2013-03-17 09:06:00,
2013-03-17 02:11:00,30.7,22.4,29.96,North,0,0.0,4.9,71,0.00,,,0.00,WUHU21623XXSP,2013-03-17 09:11:00,
2013-03-17 02:17:00,30.9,22.3,29.96,SSW,202,5.1,5.4,70,0.00,,,0.00,WUHU21623XXSP,2013-03-17 09:17:00,
2013-03-17 02:22:00,31.3,22.6,29.96,West,270,1.1,8.7,70,0.00,,,0.00,WUHU21623XXSP,2013-03-17 09:22:00,
2013-03-17 02:27:00,31.6,22.6,29.96,WNW,292,0.0,8.7,69,0.00,,,0.00,WUHU21623XXSP,2013-03-17 09:27:00,
2013-03-17 02:32:00,31.6,22.3,29.96,WNW,292,5.6,6.7,68,0.00,,,0.00,WUHU21623XXSP,2013-03-17 09:32:00,
2013-03-17 02:37:00,31.6,22.3,29.96,West,270,6.0,6.0,68,0.00,,,0.00,WUHU21623XXSP,2013-03-17 09:37:00,
2013-03-17 02:43:00,31.6,21.9,29.96,NW,315,5.4,6.0,67,0.00,,,0.00,WUHU21623XXSP,2013-03-17 09:43:00,
2013-03-17 02:48:00,31.8,22.1,29.96,NE,45,6.5,8.9,67,0.00,,,0.00,WUHU21623XXSP,2013-03-17 09:48:00,
2013-03-17 02:53:00,31.8,22.1,29.96,NNE,22,0.0,8.9,67,0.00,,,0.00,WUHU21623XXSP,2013-03-17 09:53:00,
2013-03-17 02:58:00,31.8,21.7,29.97,North,0,0.0,2.0,66,0.00,,,0.00,WUHU21623XXSP,2013-03-17 09:58:00,
2013-03-17 03:04:00,31.8,21.7,29.97,WSW,247,9.2,9.2,66,0.00,,,0.00,WUHU21623XXSP,2013-03-17 10:04:00,
2013-03-17 03:09:00,31.8,21.4,29.97,SSW,202,6.3,9.2,65,0.00,,,0.00,WUHU21623XXSP,2013-03-17 10:09:00,
2013-03-17 03:14:00,32.2,21.4,29.97,WSW,247,6.9,6.9,64,0.00,,,0.00,WUHU21623XXSP,2013-03-17 10:14:00,
2013-03-17 03:19:00,32.4,21.2,29.98,SW,225,3.4,8.1,63,0.00,,,0.00,WUHU21623XXSP,2013-03-17 10:19:00,
2013-03-17 03:25:00,32.2,21.0,29.99,SSW,202,6.3,8.1,63,0.00,,,0.00,WUHU21623XXSP,2013-03-17 10:25:00,
2013-03-17 03:30:00,32.2,21.0,29.99,West,270,15.4,15.4,63,0.00,,,0.00,WUHU21623XXSP,2013-03-17 10:30:00,
2013-03-17 03:35:00,32.2,21.0,29.99,ESE,112,0.0,15.4,63,0.00,,,0.00,WUHU21623XXSP,2013-03-17 10:35:00,
2013-03-17 03:40:00,31.8,20.7,30.00,NE,45,0.0,6.0,63,0.00,,,0.00,WUHU21623XXSP,2013-03-17 10:40:00,
2013-03-17 03:45:00,31.8,20.3,29.99,South,180,6.0,6.5,62,0.00,,,0.00,WUHU21623XXSP,2013-03-17 10:45:00,
2013-03-17 03:51:00,31.8,19.9,30.00,WSW,247,12.1,12.1,61,0.00,,,0.00,WUHU21623XXSP,2013-03-17 10:51:00,
2013-03-17 03:56:00,31.8,19.9,30.00,WSW,247,6.7,12.1,61,0.00,,,0.00,WUHU21623XXSP,2013-03-17 10:56:00,
2013-03-17 04:01:00,31.6,19.8,30.01,SSW,202,11.6,11.6,61,0.00,,,0.00,WUHU21623XXSP,2013-03-17 11:01:00,
2013-03-17 04:07:00,31.6,19.8,29.99,WSW,247,8.5,11.6,61,0.00,,,0.00,WUHU21623XXSP,2013-03-17 11:07:00,
2013-03-17 04:12:00,31.6,19.8,30.01,SW,225,6.5,8.5,61,0.00,,,0.00,WUHU21623XXSP,2013-03-17 11:12:00,
2013-03-17 04:17:00,31.3,19.4,30.01,SSW,202,3.6,11.6,61,0.00,,,0.00,WUHU21623XXSP,2013-03-17 11:17:00,
2013-03-17 04:22:00,31.3,19.4,30.01,South,180,0.0,11.6,61,0.00,,,0.00,WUHU21623XXSP,2013-03-17 11:22:00,
2013-03-17 04:28:00,31.3,19.4,30.02,SSE,157,6.0,6.0,61,0.00,,,0.00,WUHU21623XXSP,2013-03-17 11:28:00,
2013-03-17 04:33:00,31.1,19.2,30.01,WSW,247,3.1,6.0,61,0.00,,,0.00,WUHU21623XXSP,2013-03-17 11:33:00,
2013-03-17 04:38:00,30.9,19.0,30.01,West,270,0.0,6.0,61,0.00,,,0.00,WUHU21623XXSP,2013-03-17 11:38:00,
2013-03-17 04:43:00,30.7,19.2,30.02,WNW,292,2.5,3.8,62,0.00,,,0.00,WUHU21623XXSP,2013-03-17 11:43:00,
2013-03-17 04:49:00,30.6,18.7,30.02,West,270,2.9,4.5,61,0.00,,,0.00,WUHU21623XXSP,2013-03-17 11:49:00,
2013-03-17 04:54:00,30.4,18.5,30.02,NE,45,8.1,8.1,61,0.00,,,0.00,WUHU21623XXSP,2013-03-17 11:54:00,
2013-03-17 04:59:00,30.2,18.7,30.02,NNW,337,4.0,8.1,62,0.00,,,0.00,WUHU21623XXSP,2013-03-17 11:59:00,
2013-03-17 05:04:00,30.0,18.5,30.02,WNW,292,6.3,6.3,62,0.00,,,0.00,WUHU21623XXSP,2013-03-17 12:04:00,
2013-03-17 05:10:00,30.0,18.9,30.02,WSW,247,6.5,6.5,63,0.00,,,0.00,WUHU21623XXSP,2013-03-17 12:10:00,
2013-03-17 05:15:00,29.8,18.4,30.02,North,0,2.2,6.5,62,0.00,,,0.00,WUHU21623XXSP,2013-03-17 12:15:00,
2013-03-17 05:20:00,29.8,18.4,30.02,West,270,8.9,8.9,62,0.00,,,0.00,WUHU21623XXSP,2013-03-17 12:20:00,
2013-03-17 05:25:00,29.8,18.4,30.02,WSW,247,0.0,8.9,62,0.00,,,0.00,WUHU21623XXSP,2013-03-17 12:25:00,
2013-03-17 05:30:00,29.7,18.2,30.02,NNW,337,0.0,5.1,62,0.00,,,0.00,WUHU21623XXSP,2013-03-17 12:30:00,
2013-03-17 05:36:00,29.5,18.0,30.02,North,0,4.9,5.8,62,0.00,,,0.00,WUHU21623XXSP,2013-03-17 12:36:00,
2013-03-17 05:41:00,29.3,17.9,30.02,NNW,337,0.0,5.8,62,0.00,,,0.00,WUHU21623XXSP,2013-03-17 12:41:00,
2013-03-17 05:46:00,29.3,17.5,30.02,NW,315,6.7,6.7,61,0.00,,,0.00,WUHU21623XXSP,2013-03-17 12:46:00,
2013-03-17 05:52:00,29.1,17.3,30.02,NNW,337,1.1,6.7,61,0.00,,,0.00,WUHU21623XXSP,2013-03-17 12:52:00,
2013-03-17 05:57:00,29.1,17.3,30.03,NNE,22,4.7,4.9,61,0.00,,,0.00,WUHU21623XXSP,2013-03-17 12:57:00,
2013-03-17 06:02:00,29.1,17.3,30.03,West,270,4.5,4.9,61,0.00,,,0.00,WUHU21623XXSP,2013-03-17 13:02:00,
2013-03-17 06:08:00,28.9,17.9,30.03,NNW,337,6.5,6.5,63,0.00,,,0.00,WUHU21623XXSP,2013-03-17 13:08:00,
2013-03-17 06:13:00,28.9,17.9,30.03,WSW,247,6.3,6.5,63,0.00,,,0.00,WUHU21623XXSP,2013-03-17 13:13:00,
2013-03-17 06:18:00,28.8,17.4,30.03,West,270,3.8,7.4,62,0.00,,,0.00,WUHU21623XXSP,2013-03-17 13:18:00,
2013-03-17 06:23:00,28.9,17.5,30.03,NW,315,8.1,8.9,62,0.00,,,0.00,WUHU21623XXSP,2013-03-17 13:23:00,
2013-03-17 06:29:00,28.9,17.2,30.04,NNE,22,6.5,8.1,61,0.00,,,0.00,WUHU21623XXSP,2013-03-17 13:29:00,
2013-03-17 06:34:00,28.9,17.2,30.04,West,270,5.4,6.5,61,0.00,,,0.00,WUHU21623XXSP,2013-03-17 13:34:00,
2013-03-17 06:39:00,28.9,17.5,30.03,North,0,1.3,5.4,62,0.00,,,0.00,WUHU21623XXSP,2013-03-17 13:39:00,
2013-03-17 06:44:00,28.8,17.4,30.04,NNW,337,1.8,4.7,62,0.00,,,0.00,WUHU21623XXSP,2013-03-17 13:44:00,
2013-03-17 06:50:00,28.6,17.2,30.03,North,0,7.2,12.1,62,0.00,,,0.00,WUHU21623XXSP,2013-03-17 13:50:00,
2013-03-17 06:55:00,28.8,17.0,30.03,WNW,292,2.5,12.1,61,0.00,,,0.00,WUHU21623XXSP,2013-03-17 13:55:00,
2013-03-17 07:00:00,28.6,16.9,30.04,WSW,247,1.6,3.4,61,0.00,,,0.00,WUHU21623XXSP,2013-03-17 14:00:00,
2013-03-17 07:06:00,28.6,17.2,30.04,NW,315,5.4,5.4,62,0.00,,,0.00,WUHU21623XXSP,2013-03-17 14:06:00,
2013-03-17 07:11:00,28.6,16.9,30.05,NE,45,0.7,5.4,61,0.00,,,0.00,WUHU21623XXSP,2013-03-17 14:11:00,
2013-03-17 07:16:00,28.2,16.5,30.05,WSW,247,2.7,4.9,61,0.00,,,0.00,WUHU21623XXSP,2013-03-17 14:16:00,
2013-03-17 07:22:00,28.2,16.9,30.06,WNW,292,7.4,7.4,62,0.00,,,0.00,WUHU21623XXSP,2013-03-17 14:22:00,
2013-03-17 07:27:00,28.2,16.5,30.06,NNE,22,4.0,7.4,61,0.00,,,0.00,WUHU21623XXSP,2013-03-17 14:27:00,
2013-03-17 07:32:00,28.2,16.9,30.06,North,0,7.4,7.4,62,0.00,,,0.00,WUHU21623XXSP,2013-03-17 14:32:00,
2013-03-17 07:37:00,28.2,16.9,30.06,South,180,6.0,7.4,62,0.00,,,0.00,WUHU21623XXSP,2013-03-17 14:37:00,
2013-03-17 07:43:00,28.2,16.9,30.06,NW,315,4.9,6.0,62,0.00,,,0.00,WUHU21623XXSP,2013-03-17 14:43:00,
2013-03-17 07:48:00,28.2,16.5,30.07,SE,135,1.8,7.8,61,0.00,,,0.00,WUHU21623XXSP,2013-03-17 14:48:00,
2013-03-17 07:53:00,28.6,16.9,30.07,West,270,7.4,10.5,61,0.00,,,0.00,WUHU21623XXSP,2013-03-17 14:53:00,
2013-03-17 07:58:00,28.6,16.9,30.08,WSW,247,3.1,10.5,61,0.00,,,0.00,WUHU21623XXSP,2013-03-17 14:58:00,
2013-03-17 08:04:00,28.6,16.9,30.08,WNW,292,6.5,6.5,61,0.00,,,0.00,WUHU21623XXSP,2013-03-17 15:04:00,
2013-03-17 08:09:00,28.8,17.0,30.09,NNW,337,2.9,6.5,61,0.00,,,0.00,WUHU21623XXSP,2013-03-17 15:09:00,
2013-03-17 08:14:00,28.9,17.2,30.09,NE,45,3.1,3.8,61,0.00,,,0.00,WUHU21623XXSP,2013-03-17 15:14:00,
2013-03-17 08:19:00,29.1,17.3,30.08,NNW,337,0.0,4.3,61,0.00,,,0.00,WUHU21623XXSP,2013-03-17 15:19:00,
2013-03-17 08:25:00,29.5,17.7,30.08,NNW,337,0.0,4.3,61,0.00,,,0.00,WUHU21623XXSP,2013-03-17 15:25:00,
2013-03-17 08:30:00,29.5,17.7,30.08,West,270,4.9,6.7,61,0.00,,,0.00,WUHU21623XXSP,2013-03-17 15:30:00,
2013-03-17 08:35:00,29.7,17.5,30.09,NNW,337,7.2,8.3,60,0.00,,,0.00,WUHU21623XXSP,2013-03-17 15:35:00,
2013-03-17 08:40:00,29.8,17.6,30.09,SE,135,0.9,8.3,60,0.00,,,0.00,WUHU21623XXSP,2013-03-17 15:40:00,
2013-03-17 08:45:00,30.0,17.8,30.09,SW,225,2.5,7.8,60,0.00,,,0.00,WUHU21623XXSP,2013-03-17 15:45:00,
2013-03-17 08:51:00,30.0,17.8,30.08,WSW,247,2.0,13.2,60,0.00,,,0.00,WUHU21623XXSP,2013-03-17 15:51:00,
2013-03-17 08:56:00,30.4,18.1,30.08,NW,315,3.8,3.8,60,0.00,,,0.00,WUHU21623XXSP,2013-03-17 15:56:00,
2013-03-17 09:02:00,30.7,18.5,30.08,WNW,292,5.6,6.7,60,0.00,,,0.00,WUHU21623XXSP,2013-03-17 16:02:00,
2013-03-17 09:07:00,31.3,18.6,30.09,WSW,247,6.3,6.7,59,0.00,,,0.00,WUHU21623XXSP,2013-03-17 16:07:00,
2013-03-17 09:12:00,32.0,18.9,30.09,SW,225,4.5,6.3,58,0.00,,,0.00,WUHU21623XXSP,2013-03-17 16:12:00,
2013-03-17 09:17:00,32.5,19.4,30.09,NNE,22,0.0,6.3,58,0.00,,,0.00,WUHU21623XXSP,2013-03-17 16:17:00,
2013-03-17 09:22:00,32.7,19.5,30.09,WSW,247,1.6,3.8,58,0.00,,,0.00,WUHU21623XXSP,2013-03-17 16:22:00,
2013-03-17 09:28:00,33.1,19.9,30.09,SSW,202,2.9,6.3,58,0.00,,,0.00,WUHU21623XXSP,2013-03-17 16:28:00,
2013-03-17 09:33:00,33.4,20.2,30.10,NW,315,2.0,4.0,58,0.00,,,0.00,WUHU21623XXSP,2013-03-17 16:33:00,
2013-03-17 09:38:00,33.6,19.9,30.11,ENE,67,0.0,13.2,57,0.00,,,0.00,WUHU21623XXSP,2013-03-17 16:38:00,
2013-03-17 09:43:00,34.0,19.8,30.11,North,0,0.0,8.5,56,0.00,,,0.00,WUHU21623XXSP,2013-03-17 16:43:00,
2013-03-17 09:49:00,34.3,20.2,30.10,West,270,5.6,8.1,56,0.00,,,0.00,WUHU21623XXSP,2013-03-17 16:49:00,
2013-03-17 09:54:00,34.7,20.6,30.10,NE,45,2.7,8.1,56,0.00,,,0.00,WUHU21623XXSP,2013-03-17 16:54:00,
2013-03-17 09:59:00,35.2,21.1,30.10,West,270,5.8,5.8,56,0.00,,,0.00,WUHU21623XXSP,2013-03-17 16:59:00,
2013-03-17 10:04:00,35.8,21.2,30.10,WSW,247,6.9,6.9,55,0.00,,,0.00,WUHU21623XXSP,2013-03-17 17:04:00,
2013-03-17 10:10:00,36.0,21.3,30.11,WNW,292,7.8,7.8,55,0.00,,,0.00,WUHU21623XXSP,2013-03-17 17:10:00,
2013-03-17 10:15:00,36.7,21.6,30.11,West,270,7.8,7.8,54,0.00,,,0.00,WUHU21623XXSP,2013-03-17 17:15:00,
2013-03-17 10:20:00,37.0,21.9,30.11,NW,315,2.2,7.8,54,0.00,,,0.00,WUHU21623XXSP,2013-03-17 17:20:00,
2013-03-17 10:25:00,37.2,21.2,30.11,SW,225,7.2,7.2,52,0.00,,,0.00,WUHU21623XXSP,2013-03-17 17:25:00,
2013-03-17 10:31:00,37.6,21.9,30.10,West,270,4.3,7.2,53,0.00,,,0.00,WUHU21623XXSP,2013-03-17 17:31:00,
2013-03-17 10:36:00,38.1,22.4,30.11,North,0,7.2,7.2,53,0.00,,,0.00,WUHU21623XXSP,2013-03-17 17:36:00,
2013-03-17 10:41:00,38.5,22.7,30.10,ENE,67,4.0,7.2,53,0.00,,,0.00,WUHU21623XXSP,2013-03-17 17:41:00,
2013-03-17 10:47:00,39.0,22.4,30.10,NNW,337,0.0,6.5,51,0.00,,,0.00,WUHU21623XXSP,2013-03-17 17:47:00,
2013-03-17 10:52:00,39.4,22.3,30.10,West,270,0.7,3.1,50,0.00,,,0.00,WUHU21623XXSP,2013-03-17 17:52:00,
2013-03-17 10:57:00,39.9,22.2,30.11,ENE,67,0.0,6.5,49,0.00,,,0.00,WUHU21623XXSP,2013-03-17 17:57:00,
2013-03-17 11:02:00,40.6,22.9,30.11,WSW,247,10.5,10.5,49,0.00,,,0.00,WUHU21623XXSP,2013-03-17 18:02:00,
2013-03-17 11:08:00,40.8,22.5,30.12,South,180,0.2,10.5,48,0.00,,,0.00,WUHU21623XXSP,2013-03-17 18:08:00,
2013-03-17 11:13:00,40.8,22.5,30.12,ENE,67,0.0,5.6,48,0.00,,,0.00,WUHU21623XXSP,2013-03-17 18:13:00,
2013-03-17 11:18:00,41.2,22.8,30.12,NNE,22,0.0,2.7,48,0.00,,,0.00,WUHU21623XXSP,2013-03-17 18:18:00,
2013-03-17 11:23:00,41.4,23.0,30.11,NE,45,0.0,2.7,48,0.00,,,0.00,WUHU21623XXSP,2013-03-17 18:23:00,
2013-03-17 11:28:00,41.7,23.9,30.11,NW,315,10.1,10.1,49,0.00,,,0.00,WUHU21623XXSP,2013-03-17 18:28:00,
2013-03-17 11:34:00,42.1,23.7,30.11,SSW,202,4.7,10.1,48,0.00,,,0.00,WUHU21623XXSP,2013-03-17 18:34:00,
2013-03-17 11:39:00,42.1,23.7,30.11,NNW,337,6.5,6.5,48,0.00,,,0.00,WUHU21623XXSP,2013-03-17 18:39:00,
2013-03-17 11:44:00,41.7,22.8,30.11,NE,45,7.8,7.8,47,0.00,,,0.00,WUHU21623XXSP,2013-03-17 18:44:00,
2013-03-17 11:49:00,41.5,22.7,30.11,ESE,112,0.0,7.8,47,0.00,,,0.00,WUHU21623XXSP,2013-03-17 18:49:00,
2013-03-17 11:55:00,40.6,21.8,30.11,North,0,3.1,3.4,47,0.00,,,0.00,WUHU21623XXSP,2013-03-17 18:55:00,
2013-03-17 12:00:00,40.8,22.0,30.11,SSW,202,2.5,3.4,47,0.00,,,0.00,WUHU21623XXSP,2013-03-17 19:00:00,
2013-03-17 12:05:00,41.0,22.2,30.11,NE,45,2.2,6.3,47,0.00,,,0.00,WUHU21623XXSP,2013-03-17 19:05:00,
2013-03-17 12:10:00,41.5,23.2,30.11,WNW,292,1.3,6.5,48,0.00,,,0.00,WUHU21623XXSP,2013-03-17 19:10:00,
2013-03-17 12:16:00,42.1,23.2,30.11,SW,225,4.7,8.9,47,0.00,,,0.00,WUHU21623XXSP,2013-03-17 19:16:00,
2013-03-17 12:22:00,42.6,23.2,30.10,WSW,247,0.0,8.9,46,0.00,,,0.00,WUHU21623XXSP,2013-03-17 19:22:00,
2013-03-17 12:27:00,43.2,23.7,30.10,ENE,67,3.6,3.6,46,0.00,,,0.00,WUHU21623XXSP,2013-03-17 19:27:00,
2013-03-17 12:32:00,43.5,23.5,30.11,NNW,337,0.0,4.7,45,0.00,,,0.00,WUHU21623XXSP,2013-03-17 19:32:00,
2013-03-17 12:37:00,43.9,24.3,30.11,SSE,157,2.9,4.7,46,0.00,,,0.00,WUHU21623XXSP,2013-03-17 19:37:00,
2013-03-17 12:43:00,43.9,23.3,30.11,North,0,0.0,2.9,44,0.00,,,0.00,WUHU21623XXSP,2013-03-17 19:43:00,
2013-03-17 12:48:00,43.3,22.8,30.11,NNW,337,5.1,5.6,44,0.00,,,0.00,WUHU21623XXSP,2013-03-17 19:48:00,
2013-03-17 12:53:00,43.2,23.1,30.11,West,270,8.3,8.3,45,0.00,,,0.00,WUHU21623XXSP,2013-03-17 19:53:00,
2013-03-17 12:58:00,43.5,24.0,30.11,SW,225,2.0,8.3,46,0.00,,,0.00,WUHU21623XXSP,2013-03-17 19:58:00,
2013-03-17 13:03:00,43.9,24.3,30.10,NW,315,9.8,9.8,46,0.00,,,0.00,WUHU21623XXSP,2013-03-17 20:03:00,
2013-03-17 13:09:00,44.1,24.0,30.11,East,90,0.0,9.8,45,0.00,,,0.00,WUHU21623XXSP,2013-03-17 20:09:00,
2013-03-17 13:14:00,44.2,23.6,30.11,WSW,247,8.5,8.5,44,0.00,,,0.00,WUHU21623XXSP,2013-03-17 20:14:00,
2013-03-17 13:19:00,44.2,23.6,30.10,NE,45,8.5,8.5,44,0.00,,,0.00,WUHU21623XXSP,2013-03-17 20:19:00,
2013-03-17 13:24:00,44.2,23.6,30.10,NNW,337,0.0,8.5,44,0.00,,,0.00,WUHU21623XXSP,2013-03-17 20:24:00,
2013-03-17 13:30:00,44.4,23.7,30.10,NE,45,2.0,8.5,44,0.00,,,0.00,WUHU21623XXSP,2013-03-17 20:30:00,
2013-03-17 13:35:00,44.4,23.7,30.10,NNW,337,6.5,8.5,44,0.00,,,0.00,WUHU21623XXSP,2013-03-17 20:35:00,
2013-03-17 13:40:00,44.4,23.2,30.09,WSW,247,3.4,6.5,43,0.00,,,0.00,WUHU21623XXSP,2013-03-17 20:40:00,
2013-03-17 13:45:00,44.6,23.9,30.09,West,270,0.0,3.4,44,0.00,,,0.00,WUHU21623XXSP,2013-03-17 20:45:00,
2013-03-17 13:51:00,45.0,23.7,30.09,NE,45,1.1,3.4,43,0.00,,,0.00,WUHU21623XXSP,2013-03-17 20:51:00,
2013-03-17 13:56:00,45.0,24.2,30.09,North,0,0.0,12.3,44,0.00,,,0.00,WUHU21623XXSP,2013-03-17 20:56:00,
2013-03-17 14:01:00,45.3,24.0,30.08,South,180,1.8,12.3,43,0.00,,,0.00,WUHU21623XXSP,2013-03-17 21:01:00,
2013-03-17 14:06:00,45.1,23.8,30.09,North,0,1.1,4.3,43,0.00,,,0.00,WUHU21623XXSP,2013-03-17 21:06:00,
2013-03-17 14:12:00,45.0,24.2,30.08,West,270,3.6,3.6,44,0.00,,,0.00,WUHU21623XXSP,2013-03-17 21:12:00,
2013-03-17 14:18:00,44.8,23.5,30.08,WSW,247,11.9,11.9,43,0.00,,,0.00,WUHU21623XXSP,2013-03-17 21:18:00,
2013-03-17 14:23:00,44.2,23.6,30.08,North,0,7.8,11.9,44,0.00,,,0.00,WUHU21623XXSP,2013-03-17 21:23:00,
2013-03-17 14:28:00,43.9,23.3,30.08,WSW,247,2.7,7.8,44,0.00,,,0.00,WUHU21623XXSP,2013-03-17 21:28:00,
2013-03-17 14:33:00,43.9,23.8,30.08,WSW,247,8.9,8.9,45,0.00,,,0.00,WUHU21623XXSP,2013-03-17 21:33:00,
2013-03-17 14:39:00,43.7,23.6,30.09,NNW,337,1.3,8.9,45,0.00,,,0.00,WUHU21623XXSP,2013-03-17 21:39:00,
2013-03-17 14:44:00,43.7,23.6,30.08,NNW,337,2.0,3.4,45,0.00,,,0.00,WUHU21623XXSP,2013-03-17 21:44:00,
2013-03-17 14:49:00,43.5,24.0,30.08,NNW,337,0.0,7.8,46,0.00,,,0.00,WUHU21623XXSP,2013-03-17 21:49:00,
2013-03-17 14:54:00,43.9,24.3,30.08,West,270,0.0,7.8,46,0.00,,,0.00,WUHU21623XXSP,2013-03-17 21:54:00,
2013-03-17 14:59:00,43.5,24.0,30.07,NNE,22,3.1,6.5,46,0.00,,,0.00,WUHU21623XXSP,2013-03-17 21:59:00,
2013-03-17 15:05:00,43.2,23.7,30.07,West,270,6.0,6.0,46,0.00,,,0.00,WUHU21623XXSP,2013-03-17 22:05:00,
2013-03-17 15:10:00,43.3,23.8,30.08,NNW,337,0.0,6.0,46,0.00,,,0.00,WUHU21623XXSP,2013-03-17 22:10:00,
2013-03-17 15:15:00,43.0,23.5,30.07,WSW,247,0.0,4.9,46,0.00,,,0.00,WUHU21623XXSP,2013-03-17 22:15:00,
2013-03-17 15:20:00,42.6,23.2,30.07,North,0,9.6,9.6,46,0.00,,,0.00,WUHU21623XXSP,2013-03-17 22:20:00,
2013-03-17 15:26:00,42.4,23.0,30.07,SSE,157,3.1,9.6,46,0.00,,,0.00,WUHU21623XXSP,2013-03-17 22:26:00,
2013-03-17 15:31:00,41.7,22.3,30.08,North,0,2.0,6.5,46,0.00,,,0.00,WUHU21623XXSP,2013-03-17 22:31:00,
2013-03-17 15:36:00,41.7,22.8,30.08,East,90,15.2,15.2,47,0.00,,,0.00,WUHU21623XXSP,2013-03-17 22:36:00,
2013-03-17 15:41:00,41.5,22.1,30.07,WNW,292,0.0,15.2,46,0.00,,,0.00,WUHU21623XXSP,2013-03-17 22:41:00,
2013-03-17 15:47:00,41.2,21.8,30.08,NNW,337,5.8,5.8,46,0.00,,,0.00,WUHU21623XXSP,2013-03-17 22:47:00,
2013-03-17 15:52:00,40.8,22.0,30.08,NNW,337,0.0,9.8,47,0.00,,,0.00,WUHU21623XXSP,2013-03-17 22:52:00,
2013-03-17 15:57:00,40.5,22.2,30.08,West,270,4.0,9.8,48,0.00,,,0.00,WUHU21623XXSP,2013-03-17 22:57:00,
2013-03-17 16:03:00,40.5,22.2,30.07,WSW,247,7.2,7.2,48,0.00,,,0.00,WUHU21623XXSP,2013-03-17 23:03:00,
2013-03-17 16:08:00,40.1,21.9,30.08,NNW,337,2.9,7.2,48,0.00,,,0.00,WUHU21623XXSP,2013-03-17 23:08:00,
2013-03-17 16:13:00,39.9,21.7,30.08,North,0,0.0,3.6,48,0.00,,,0.00,WUHU21623XXSP,2013-03-17 23:13:00,
2013-03-17 16:18:00,39.7,22.1,30.08,NNW,337,7.2,7.2,49,0.00,,,0.00,WUHU21623XXSP,2013-03-17 23:18:00,
2013-03-17 16:24:00,39.6,21.9,30.08,WNW,292,3.8,7.2,49,0.00,,,0.00,WUHU21623XXSP,2013-03-17 23:24:00,
2013-03-17 16:29:00,39.4,21.7,30.07,WSW,247,0.0,11.6,49,0.00,,,0.00,WUHU21623XXSP,2013-03-17 23:29:00,
2013-03-17 16:34:00,39.4,22.3,30.07,NNW,337,2.5,11.6,50,0.00,,,0.00,WUHU21623XXSP,2013-03-17 23:34:00,
2013-03-17 16:39:00,39.4,22.3,30.07,WSW,247,3.4,6.9,50,0.00,,,0.00,WUHU21623XXSP,2013-03-17 23:39:00,
2013-03-17 16:45:00,39.0,21.9,30.08,WSW,247,5.6,6.9,50,0.00,,,0.00,WUHU21623XXSP,2013-03-17 23:45:00,
2013-03-17 16:50:00,39.0,21.9,30.08,WSW,247,6.9,6.9,50,0.00,,,0.00,WUHU21623XXSP,2013-03-17 23:50:00,
2013-03-17 16:55:00,39.0,21.9,30.08,WSW,247,10.1,10.1,50,0.00,,,0.00,WUHU21623XXSP,2013-03-17 23:55:00,
2013-03-17 17:00:00,38.8,21.8,30.08,WSW,247,0.0,10.1,50,0.00,,,0.00,WUHU21623XXSP,2013-03-18 00:00:00,
2013-03-17 17:06:00,38.8,22.2,30.08,WNW,292,1.8,10.1,51,0.00,,,0.00,WUHU21623XXSP,2013-03-18 00:06:00,
2013-03-17 17:11:00,38.5,21.9,30.08,SSW,202,3.4,3.8,51,0.00,,,0.00,WUHU21623XXSP,2013-03-18 00:11:00,
2013-03-17 17:17:00,38.1,21.6,30.08,WSW,247,5.4,6.5,51,0.00,,,0.00,WUHU21623XXSP,2013-03-18 00:17:00,
2013-03-17 17:22:00,38.1,21.6,30.07,South,180,2.5,5.4,51,0.00,,,0.00,WUHU21623XXSP,2013-03-18 00:22:00,
2013-03-17 17:27:00,38.3,21.7,30.08,NW,315,4.3,7.8,51,0.00,,,0.00,WUHU21623XXSP,2013-03-18 00:27:00,
2013-03-17 17:32:00,38.1,21.6,30.08,WSW,247,4.9,4.9,51,0.00,,,0.00,WUHU21623XXSP,2013-03-18 00:32:00,
2013-03-17 17:37:00,37.9,21.4,30.07,WSW,247,0.0,4.9,51,0.00,,,0.00,WUHU21623XXSP,2013-03-18 00:37:00,
2013-03-17 17:44:00,37.9,21.4,30.08,WSW,247,0.0,2.5,51,0.00,,,0.00,WUHU21623XXSP,2013-03-18 00:44:00,
2013-03-17 17:49:00,37.8,21.7,30.07,WSW,247,6.7,6.7,52,0.00,,,0.00,WUHU21623XXSP,2013-03-18 00:49:00,
2013-03-17 17:54:00,37.6,21.5,30.07,WSW,247,12.8,12.8,52,0.00,,,0.00,WUHU21623XXSP,2013-03-18 00:54:00,
2013-03-17 17:59:00,37.4,21.3,30.07,WSW,247,2.9,12.8,52,0.00,,,0.00,WUHU21623XXSP,2013-03-18 00:59:00,
2013-03-17 18:04:00,37.2,21.2,30.07,WSW,247,3.1,5.1,52,0.00,,,0.00,WUHU21623XXSP,2013-03-18 01:04:00,
2013-03-17 18:10:00,37.0,20.6,30.08,West,270,6.0,6.0,51,0.00,,,0.00,WUHU21623XXSP,2013-03-18 01:10:00,
2013-03-17 18:15:00,36.9,20.9,30.07,NW,315,6.5,6.5,52,0.00,,,0.00,WUHU21623XXSP,2013-03-18 01:15:00,
2013-03-17 18:20:00,36.7,20.7,30.07,NNW,337,3.4,6.5,52,0.00,,,0.00,WUHU21623XXSP,2013-03-18 01:20:00,
2013-03-17 18:25:00,36.5,20.5,30.07,NNW,337,4.3,10.7,52,0.00,,,0.00,WUHU21623XXSP,2013-03-18 01:25:00,
2013-03-17 18:31:00,36.3,20.8,30.07,North,0,9.8,10.7,53,0.00,,,0.00,WUHU21623XXSP,2013-03-18 01:31:00,
2013-03-17 18:36:00,36.3,20.8,30.07,WSW,247,6.5,9.8,53,0.00,,,0.00,WUHU21623XXSP,2013-03-18 01:36:00,
2013-03-17 18:41:00,36.0,20.9,30.08,WSW,247,1.3,8.3,54,0.00,,,0.00,WUHU21623XXSP,2013-03-18 01:41:00,
2013-03-17 18:47:00,35.8,20.8,30.08,ENE,67,0.0,8.3,54,0.00,,,0.00,WUHU21623XXSP,2013-03-18 01:47:00,
2013-03-17 18:52:00,35.8,20.8,30.08,North,0,2.0,2.0,54,0.00,,,0.00,WUHU21623XXSP,2013-03-18 01:52:00,
2013-03-17 18:57:00,35.4,20.8,30.08,NNW,337,0.0,2.0,55,0.00,,,0.00,WUHU21623XXSP,2013-03-18 01:57:00,
2013-03-17 19:02:00,35.4,20.8,30.08,NW,315,0.0,2.5,55,0.00,,,0.00,WUHU21623XXSP,2013-03-18 02:02:00,
2013-03-17 19:08:00,35.2,20.7,30.08,WSW,247,5.4,5.4,55,0.00,,,0.00,WUHU21623XXSP,2013-03-18 02:08:00,
2013-03-17 19:14:00,34.9,20.3,30.08,West,270,1.6,5.6,55,0.00,,,0.00,WUHU21623XXSP,2013-03-18 02:14:00,
2013-03-17 19:19:00,34.9,20.3,30.08,NNW,337,1.6,5.6,55,0.00,,,0.00,WUHU21623XXSP,2013-03-18 02:19:00,
2013-03-17 19:24:00,34.7,20.1,30.08,West,270,0.0,7.8,55,0.00,,,0.00,WUHU21623XXSP,2013-03-18 02:24:00,
2013-03-17 19:29:00,34.5,19.9,30.08,West,270,2.9,7.8,55,0.00,,,0.00,WUHU21623XXSP,2013-03-18 02:29:00,
2013-03-17 19:35:00,34.3,19.8,30.08,North,0,0.0,3.6,55,0.00,,,0.00,WUHU21623XXSP,2013-03-18 02:35:00,
2013-03-17 19:40:00,34.3,20.2,30.08,NNE,22,5.4,5.4,56,0.00,,,0.00,WUHU21623XXSP,2013-03-18 02:40:00,
2013-03-17 19:45:00,34.3,20.2,30.08,West,270,0.0,5.6,56,0.00,,,0.00,WUHU21623XXSP,2013-03-18 02:45:00,
2013-03-17 19:50:00,34.3,20.2,30.08,West,270,1.8,5.6,56,0.00,,,0.00,WUHU21623XXSP,2013-03-18 02:50:00,
2013-03-17 19:56:00,34.2,20.4,30.08,WNW,292,5.6,5.6,57,0.00,,,0.00,WUHU21623XXSP,2013-03-18 02:56:00,
2013-03-17 20:01:00,34.0,20.3,30.08,NNW,337,0.0,5.6,57,0.00,,,0.00,WUHU21623XXSP,2013-03-18 03:01:00,
2013-03-17 20:06:00,34.0,20.3,30.08,North,0,0.0,2.2,57,0.00,,,0.00,WUHU21623XXSP,2013-03-18 03:06:00,
2013-03-17 20:12:00,33.8,20.5,30.08,West,270,0.0,0.0,58,0.00,,,0.00,WUHU21623XXSP,2013-03-18 03:12:00,
2013-03-17 20:17:00,33.6,20.4,30.08,North,0,0.0,2.5,58,0.00,,,0.00,WUHU21623XXSP,2013-03-18 03:17:00,
2013-03-17 20:22:00,33.6,20.4,30.08,NNW,337,1.1,2.5,58,0.00,,,0.00,WUHU21623XXSP,2013-03-18 03:22:00,
2013-03-17 20:27:00,33.4,20.2,30.08,NNW,337,0.0,1.1,58,0.00,,,0.00,WUHU21623XXSP,2013-03-18 03:27:00,
2013-03-17 20:33:00,33.4,20.6,30.08,NNW,337,0.0,0.0,59,0.00,,,0.00,WUHU21623XXSP,2013-03-18 03:33:00,
2013-03-17 20:38:00,33.1,20.3,30.08,NNW,337,0.0,1.1,59,0.00,,,0.00,WUHU21623XXSP,2013-03-18 03:38:00,
2013-03-17 20:43:00,33.1,20.3,30.08,NNW,337,0.0,0.0,59,0.00,,,0.00,WUHU21623XXSP,2013-03-18 03:43:00,
2013-03-17 20:48:00,32.9,20.1,30.08,West,270,0.0,0.0,59,0.00,,,0.00,WUHU21623XXSP,2013-03-18 03:48:00,
2013-03-17 20:53:00,32.7,20.0,30.08,NNW,337,0.0,0.0,59,0.00,,,0.00,WUHU21623XXSP,2013-03-18 03:53:00,
2013-03-17 20:59:00,32.7,20.0,30.09,West,270,0.0,3.8,59,0.00,,,0.00,WUHU21623XXSP,2013-03-18 03:59:00,
2013-03-17 21:04:00,32.9,20.1,30.09,NNW,337,0.0,3.8,59,0.00,,,0.00,WUHU21623XXSP,2013-03-18 04:04:00,
2013-03-17 21:09:00,32.9,20.1,30.09,West,270,0.0,3.6,59,0.00,,,0.00,WUHU21623XXSP,2013-03-18 04:09:00,
2013-03-17 21:14:00,32.7,20.0,30.09,West,270,0.0,3.6,59,0.00,,,0.00,WUHU21623XXSP,2013-03-18 04:14:00,
2013-03-17 21:20:00,32.7,20.0,30.09,West,270,0.0,0.0,59,0.00,,,0.00,WUHU21623XXSP,2013-03-18 04:20:00,
2013-03-17 21:26:00,32.4,19.7,30.08,West,270,0.0,0.0,59,0.00,,,0.00,WUHU21623XXSP,2013-03-18 04:26:00,
2013-03-17 21:32:00,31.8,19.1,30.09,West,270,0.0,0.0,59,0.00,,,0.00,WUHU21623XXSP,2013-03-18 04:32:00,
2013-03-17 21:37:00,31.6,19.0,30.09,West,270,0.0,0.0,59,0.00,,,0.00,WUHU21623XXSP,2013-03-18 04:37:00,
2013-03-17 21:42:00,31.5,18.8,30.09,West,270,0.0,0.0,59,0.00,,,0.00,WUHU21623XXSP,2013-03-18 04:42:00,
2013-03-17 21:48:00,31.1,18.9,30.09,West,270,0.0,0.0,60,0.00,,,0.00,WUHU21623XXSP,2013-03-18 04:48:00,
2013-03-17 21:53:00,30.9,18.7,30.09,West,270,0.0,0.0,60,0.00,,,0.00,WUHU21623XXSP,2013-03-18 04:53:00,
2013-03-17 21:58:00,30.7,18.5,30.09,West,270,0.0,0.0,60,0.00,,,0.00,WUHU21623XXSP,2013-03-18 04:58:00,
2013-03-17 22:03:00,30.2,18.0,30.09,West,270,0.0,0.0,60,0.00,,,0.00,WUHU21623XXSP,2013-03-18 05:03:00,
2013-03-17 22:09:00,30.0,17.8,30.09,West,270,0.0,0.0,60,0.00,,,0.00,WUHU21623XXSP,2013-03-18 05:09:00,
2013-03-17 22:14:00,29.7,17.8,30.09,West,270,0.0,0.0,61,0.00,,,0.00,WUHU21623XXSP,2013-03-18 05:14:00,
2013-03-17 22:19:00,29.5,17.7,30.09,West,270,0.0,0.0,61,0.00,,,0.00,WUHU21623XXSP,2013-03-18 05:19:00,
2013-03-17 22:24:00,29.3,17.9,30.10,West,270,0.0,0.0,62,0.00,,,0.00,WUHU21623XXSP,2013-03-18 05:24:00,
2013-03-17 22:30:00,29.1,17.7,30.09,West,270,0.0,0.0,62,0.00,,,0.00,WUHU21623XXSP,2013-03-18 05:30:00,
2013-03-17 22:35:00,28.9,17.9,30.09,West,270,0.0,0.0,63,0.00,,,0.00,WUHU21623XXSP,2013-03-18 05:35:00,
2013-03-17 22:40:00,28.8,17.7,30.09,West,270,0.0,0.0,63,0.00,,,0.00,WUHU21623XXSP,2013-03-18 05:40:00,
2013-03-17 22:45:00,28.8,17.7,30.09,West,270,0.0,0.0,63,0.00,,,0.00,WUHU21623XXSP,2013-03-18 05:45:00,
2013-03-17 22:50:00,28.6,17.6,30.08,West,270,0.0,0.0,63,0.00,,,0.00,WUHU21623XXSP,2013-03-18 05:50:00,
2013-03-17 22:57:00,28.4,17.4,30.08,West,270,0.0,0.0,63,0.00,,,0.00,WUHU21623XXSP,2013-03-18 05:57:00,
2013-03-17 23:02:00,28.2,17.6,30.09,West,270,0.0,0.0,64,0.00,,,0.00,WUHU21623XXSP,2013-03-18 06:02:00,
2013-03-17 23:07:00,28.0,17.4,30.09,West,270,0.0,0.0,64,0.00,,,0.00,WUHU21623XXSP,2013-03-18 06:07:00,
2013-03-17 23:12:00,27.7,17.1,30.09,West,270,0.0,0.0,64,0.00,,,0.00,WUHU21623XXSP,2013-03-18 06:12:00,
2013-03-17 23:17:00,27.7,17.1,30.09,West,270,0.0,0.0,64,0.00,,,0.00,WUHU21623XXSP,2013-03-18 06:17:00,
2013-03-17 23:23:00,27.5,17.2,30.09,West,270,0.0,0.0,65,0.00,,,0.00,WUHU21623XXSP,2013-03-18 06:23:00,
2013-03-17 23:28:00,27.5,16.9,30.09,West,270,0.0,0.0,64,0.00,,,0.00,WUHU21623XXSP,2013-03-18 06:28:00,
2013-03-17 23:33:00,27.1,16.9,30.09,West,270,0.0,0.0,65,0.00,,,0.00,WUHU21623XXSP,2013-03-18 06:33:00,
2013-03-17 23:38:00,27.1,16.9,30.09,West,270,0.0,0.0,65,0.00,,,0.00,WUHU21623XXSP,2013-03-18 06:38:00,
2013-03-17 23:44:00,27.0,16.7,30.08,West,270,0.0,0.0,65,0.00,,,0.00,WUHU21623XXSP,2013-03-18 06:44:00,
2013-03-17 23:49:00,27.0,16.7,30.09,West,270,0.0,0.0,65,0.00,,,0.00,WUHU21623XXSP,2013-03-18 06:49:00,
2013-03-17 23:54:00,26.8,16.9,30.09,West,270,0.0,0.0,66,0.00,,,0.00,WUHU21623XXSP,2013-03-18 06:54:00,
2013-03-17 23:59:00,26.6,16.7,30.09,West,270,0.0,0.0,66,0.00,,,0.00,WUHU21623XXSP,2013-03-18 06:59:00,